Satellite-Ground Cal/Val Site Overpasses Predictions

Prediction of Satellite NPP Overpassing Cal/Val Site: Antarctic Dome C

Ground Cal/Val Site Location: Latitude: -75.10, Longitude: 123.35; Satellite-Ground Site NADIR distance within 100 km.

Table of predicted overpasses for the next 14.0 days since TLE Epoch: 2/22/2020
Interval Starting Time Ending Time Minimum Distance Time Minimum Distance (km)
1 02/23/2020 14:54:27 02/23/2020 14:54:56 02/23/2020 14:54:42 20.59
2 02/24/2020 14:35:46 02/24/2020 14:36:00 02/24/2020 14:35:53 86.53
3 02/25/2020 07:37:19 02/25/2020 07:37:46 02/25/2020 07:37:32 35.53
4 02/26/2020 07:18:33 02/26/2020 07:18:52 02/26/2020 07:18:42 74.66
5 02/28/2020 15:00:48 02/28/2020 15:01:12 02/28/2020 15:01:00 57.62
6 02/29/2020 14:41:59 02/29/2020 14:42:24 02/29/2020 14:42:11 51.48
7 03/01/2020 07:43:39 03/01/2020 07:44:00 03/01/2020 07:43:50 70.88
8 03/02/2020 07:24:47 03/02/2020 07:25:15 03/02/2020 07:25:01 37.03
9 03/04/2020 15:07:15 03/04/2020 15:07:23 03/04/2020 15:07:19 95.56


NCC Satellite Cal/Val Overpasses Prediction Service
